{"data":{"norad_id":64265,"intl_designator":"2025-120K","name":"STARLINK-34240","alt_names":[],"object_type":"PAYLOAD","status":"ACTIVE","operator":null,"country":"US","launch_date":"2025-06-04","launch_site_code":"AFWTR","launch_vehicle":null,"mission":null,"orbit_class":"UNKNOWN","rcs_meters":null,"size_class":null,"mass_kg":null,"dimensions":null,"purposes":["comms"],"wikipedia_slug":null,"has_3d_model":false,"image_url":null,"decayed_at":null,"tle_current":{"epoch":"2026-09-20T05:20:20.360832Z","epoch_age_seconds":161589,"freshness":"FRESH","line1":"1 64265U 25120K   26263.22245788  .00018921  00000+0  57000-3 0  9995","line2":"2 64265  53.1601 290.7244 0002000  48.8619 311.2556 15.34383597 73738","mean_motion":15.34383597,"eccentricity":0.0002,"inclination_deg":53.1601,"raan_deg":290.7244,"arg_perigee_deg":48.8619,"mean_anomaly_deg":311.2556,"bstar":0.00057,"rev_number":7373,"period_min":93.848761340741,"perigee_km":461.38381601544,"apogee_km":464.12017161296,"semimajor_km":6840.8889938142,"source":"CELESTRAK","updated_at":"2026-09-21T09:00:35.283212Z"}}}